GFSSW_850_thetae_021.txt.gz
Theta_e
311 310 310 310 310 310 310 310 311 311 311 311 311 312 313 314 315 314 315 316 317 317 316 316 316 316 317 319 320 319 314 315 318 320 320 318 317 318 318 317 318 318 318 318 318
309 310 310 311 311 311 312 312 311 311 311 310 310 310 311 312 313 314 315 315 316 316 316 316 318 317 318 320 320 319 315 317 318 318 318 317 317 317 317 316 316 317 317 317 317
311 311 311 312 312 312 313 313 313 313 313 313 312 310 310 311 312 314 317 317 316 315 316 315 318 318 318 319 320 318 315 317 319 319 318 317 317 317 316 313 316 317 317 317 316
312 312 312 312 312 312 312 313 313 313 313 313 313 312 311 310 310 318 316 315 317 315 315 315 317 318 317 317 320 318 318 319 319 319 318 316 316 317 316 317 318 318 318 317 317
312 312 312 312 312 312 312 313 313 313 313 313 313 312 311 311 312 313 314 315 315 315 315 314 317 318 317 319 319 317 317 319 319 318 318 317 316 314 316 317 318 317 317 317 317
313 313 313 313 313 313 313 314 314 314 314 314 313 312 310 313 313 314 315 314 314 314 314 313 315 317 318 318 317 317 317 317 317 318 317 315 314 316 317 317 317 317 317 317 317
308 308 308 309 310 312 313 314 314 314 314 314 313 311 310 313 314 314 314 313 313 314 313 313 313 316 317 318 318 317 316 312 314 316 314 316 313 313 318 316 317 318 317 317 317
312 312 312 311 310 308 308 308 309 312 313 314 313 310 311 314 314 314 314 314 313 313 312 312 314 314 316 317 316 315 314 314 315 314 315 316 315 314 318 316 316 317 317 318 317
313 313 313 313 313 313 312 311 309 308 308 310 311 310 312 314 314 315 315 314 313 313 312 312 313 313 316 313 313 312 313 313 314 314 313 313 314 313 317 316 316 317 317 318 318
312 311 311 311 311 312 313 314 313 310 308 310 312 315 314 315 314 314 314 313 313 312 311 311 313 312 312 311 313 312 313 313 313 314 313 312 313 313 316 315 315 317 317 317 317
316 315 313 313 310 310 311 312 311 313 312 313 314 313 315 315 314 314 314 312 312 312 311 312 311 312 311 313 312 312 312 311 313 314 315 314 315 314 314 313 312 315 316 317 317
320 320 321 320 318 309 310 309 309 310 308 309 309 310 312 314 315 314 313 312 312 312 312 313 313 312 312 311 313 313 313 312 313 312 312 312 313 314 311 313 315 314 315 316 317
323 322 323 322 320 316 310 309 307 306 310 308 310 309 310 310 313 314 313 312 310 310 311 312 312 313 314 314 314 313 312 313 312 312 311 311 311 312 311 313 315 316 317 316 316
322 323 323 323 321 321 314 308 308 309 304 308 310 311 311 312 311 312 312 313 310 311 310 311 312 312 312 313 313 314 311 312 313 313 313 311 314 311 312 311 311 313 315 317 316
325 323 323 323 322 322 316 308 309 308 307 310 310 311 312 310 309 311 311 311 310 311 311 312 313 311 312 313 311 314 312 311 313 312 312 314 314 314 312 311 311 311 315 316 317
325 325 323 323 323 322 321 308 309 305 307 309 310 310 310 311 310 309 310 310 310 310 309 309 311 312 311 310 311 310 312 311 310 309 313 312 313 312 310 312 311 312 314 316 317
324 324 324 322 321 321 322 310 314 309 308 311 310 311 311 311 310 308 308 308 308 310 308 309 309 309 310 312 309 310 311 312 311 310 314 310 311 314 311 310 310 311 315 317 317
320 322 323 321 322 321 316 312 319 316 312 312 311 310 311 310 312 309 309 308 306 308 309 310 311 309 308 311 310 308 312 311 310 312 313 308 311 311 311 312 314 315 317 316 313
317 318 320 320 320 319 312 315 322 319 316 318 317 312 311 310 310 310 308 308 308 307 310 310 310 309 308 309 310 310 311 311 313 298 308 313 310 310 310 309 307 308 310 311 313
314 315 315 316 319 316 311 319 319 317 317 314 319 316 315 312 311 312 310 309 310 308 310 311 312 310 307 307 308 309 308 311 310 311 310 313 311 313 311 311 310 308 306 310 312
310 313 315 316 318 312 312 313 314 316 317 317 319 317 315 316 310 310 311 310 309 310 310 309 311 312 306 307 309 307 309 309 309 311 315 314 313 310 308 308 310 308 310 310 311
309 313 315 316 313 311 315 313 314 314 314 315 309 313 317 318 319 319 319 314 312 310 312 310 311 313 311 308 306 308 310 311 312 312 310 312 313 313 310 307 308 309 311 311 311
308 311 313 314 315 315 311 312 313 314 314 314 315 313 314 314 316 315 314 315 316 314 312 312 311 315 313 312 306 307 307 308 310 310 313 313 313 312 311 307 308 307 310 310 310
304 308 310 309 312 313 314 314 313 313 313 313 314 314 315 316 315 316 315 312 313 310 311 311 310 313 317 315 312 311 309 308 310 311 312 311 312 311 311 311 311 312 312 312 311
300 303 307 306 310 310 312 312 313 312 312 312 313 313 314 316 316 316 314 314 311 310 311 312 313 312 312 312 313 313 313 312 312 312 314 313 312 310 310 310 310 310 310 310 310
299 300 301 300 302 306 307 309 310 310 309 310 310 306 305 309 312 313 312 313 313 309 310 310 314 314 314 312 312 313 312 312 313 312 312 312 313 312 312 312 312 313 312 310 310
296 297 298 298 298 300 300 303 305 304 304 304 302 303 302 303 304 303 302 302 304 308 311 312 311 314 315 312 312 313 313 313 312 312 312 313 312 311 311 311 311 312 311 311 311

GFSSW_850_thetae_024.txt.gz
Theta_e
310 310 310 310 310 310 310 310 311 311 310 310 310 310 310 311 312 314 315 315 317 316 316 315 316 316 316 318 319 319 311 313 315 318 318 317 316 317 317 317 317 317 318 318 318
310 310 310 311 311 312 312 312 312 312 312 312 312 311 310 310 311 312 313 315 315 316 316 315 317 317 317 318 320 317 311 312 313 317 316 317 316 317 316 315 316 317 318 318 317
310 311 311 312 312 312 312 313 313 313 313 313 313 313 312 311 311 313 316 316 314 315 315 315 317 317 317 318 319 317 314 314 318 318 318 316 315 317 315 313 316 317 318 318 317
312 312 312 312 312 312 312 312 312 312 313 313 313 313 313 311 310 316 315 313 315 316 314 315 316 317 316 315 318 316 317 316 318 319 317 316 316 315 315 317 318 318 318 317 317
313 313 313 313 313 312 312 313 313 313 313 313 313 313 312 311 313 314 313 313 315 316 316 314 315 317 315 316 317 316 316 318 319 318 318 316 315 314 315 317 317 317 317 317 317
309 309 310 311 312 313 313 313 313 314 314 314 314 313 311 310 314 314 314 314 315 314 315 313 314 316 316 317 315 316 316 317 317 317 317 315 314 316 317 317 317 317 316 317 317
311 311 311 311 310 309 309 309 310 311 313 314 314 313 311 314 315 314 314 314 313 313 313 313 314 316 315 316 316 317 314 313 315 316 313 314 312 312 317 316 316 317 317 317 317
314 314 314 314 314 315 315 314 312 309 308 308 310 311 311 314 314 314 313 313 313 312 312 312 312 314 314 315 315 314 313 313 312 312 314 314 314 313 317 316 317 317 317 316 317
311 311 311 312 312 313 314 315 315 314 311 308 307 310 311 313 314 314 313 314 313 312 312 311 313 314 314 311 310 310 310 310 312 313 312 311 313 313 317 316 316 318 318 317 317
315 314 312 311 311 310 310 312 313 312 311 308 311 312 311 313 314 314 314 314 312 312 311 311 312 310 310 309 311 309 310 311 312 312 312 311 312 313 315 314 314 316 317 317 317
319 319 320 320 320 314 309 310 310 312 312 313 312 311 314 314 315 314 314 312 312 311 309 311 309 309 310 310 311 310 309 310 311 311 313 312 313 313 314 314 312 314 315 316 317
323 323 323 323 322 316 316 309 308 308 307 310 312 312 313 314 315 314 313 312 312 310 310 311 310 310 309 309 310 311 312 312 312 311 310 311 312 313 312 313 314 313 314 314 315
322 322 323 323 322 321 316 311 308 308 308 308 309 308 309 310 311 313 312 312 310 309 309 311 311 311 310 310 311 310 311 312 312 311 309 308 311 310 309 312 313 314 314 314 314
323 323 323 323 322 322 318 312 308 308 303 306 310 309 310 310 310 312 312 312 309 310 308 308 310 311 311 311 311 312 310 311 311 311 312 310 313 311 309 310 310 312 314 314 315
324 325 325 324 324 322 320 311 308 310 317 310 310 310 311 309 308 310 311 311 309 310 310 309 311 310 310 312 310 313 310 310 310 309 309 311 311 312 310 311 310 311 313 316 317
323 324 324 323 323 323 322 310 311 309 317 309 309 309 310 310 310 309 310 310 309 309 308 309 310 309 309 309 308 309 311 310 307 308 313 311 311 312 310 311 311 311 314 315 316
321 321 322 323 322 323 322 311 321 319 312 312 309 309 309 309 309 307 307 308 308 309 307 307 307 308 310 311 309 310 310 310 310 310 313 309 310 313 310 310 309 310 313 316 317
318 318 320 322 322 322 321 316 324 318 313 313 310 309 310 309 310 308 307 307 306 307 306 308 311 307 307 310 309 309 310 311 309 312 313 306 310 311 309 310 313 314 314 315 316
314 315 317 317 319 321 317 320 322 321 316 316 317 316 310 309 309 309 306 306 307 306 309 308 309 308 307 308 309 308 309 310 309 295 305 310 310 311 307 308 307 309 312 311 312
309 311 314 315 316 318 314 320 319 317 318 318 321 317 314 311 310 311 310 308 308 306 308 309 310 309 307 307 307 308 307 310 309 310 308 311 310 312 311 311 308 307 307 311 311
306 309 311 313 316 314 316 316 316 317 317 317 318 319 316 316 313 315 314 310 308 310 307 309 311 311 308 307 310 306 308 308 308 312 315 315 314 313 311 308 306 307 310 311 312
307 309 310 315 313 312 315 314 315 314 315 316 314 316 317 317 318 319 319 317 312 310 310 310 312 314 313 310 306 306 309 310 312 313 312 313 314 313 313 311 311 311 309 312 312
306 309 310 314 313 314 312 312 314 314 314 314 315 313 314 315 316 315 315 315 315 314 313 311 314 317 315 312 311 312 311 309 310 310 312 314 314 313 312 311 311 306 309 311 311
303 305 309 311 311 312 312 312 313 312 312 313 313 313 313 314 314 314 314 313 314 313 314 314 315 316 317 316 312 311 310 310 310 311 312 311 311 310 311 311 311 311 311 311 311
299 301 304 307 309 309 310 310 310 310 310 311 312 312 311 313 311 312 309 304 305 310 310 312 315 314 314 314 314 314 314 313 313 310 311 311 311 310 310 311 312 311 311 310 310
296 299 299 300 300 304 307 308 309 309 309 310 310 302 304 304 305 305 306 303 303 304 304 303 309 311 312 312 311 312 312 312 312 312 313 313 313 312 311 312 312 312 312 312 312
294 296 296 297 298 297 298 302 302 299 301 304 299 297 299 299 297 296 297 297 299 300 301 302 305 306 307 309 310 312 313 312 312 311 312 314 313 312 311 312 311 310 308 303 302

GFSSW_850_thetae_030.txt.gz
Theta_e
310 310 310 310 310 311 311 311 312 312 312 312 312 312 312 312 312 311 312 312 313 315 315 315 315 315 315 316 317 317 310 310 313 312 314 315 314 316 316 316 316 317 317 318 318
310 310 310 310 311 311 311 312 312 312 312 312 312 313 313 313 313 313 314 313 311 314 316 315 315 315 315 316 317 315 308 310 309 311 313 315 315 316 315 315 315 316 317 317 317
310 311 311 311 311 312 312 312 312 312 312 312 313 313 313 313 313 312 314 313 313 313 315 315 314 316 315 316 317 314 313 310 313 314 316 315 314 317 314 312 317 317 317 317 317
312 312 312 312 312 312 312 312 312 312 312 313 313 313 313 313 310 313 314 313 313 313 314 314 315 316 314 314 316 315 315 314 315 317 316 314 315 314 314 317 318 317 317 317 317
312 312 312 312 311 311 312 312 312 313 313 313 313 313 314 312 314 315 314 313 312 313 314 313 314 315 313 312 314 313 313 316 317 316 317 316 314 313 314 318 317 318 316 316 316
309 309 309 309 310 310 310 310 310 310 310 310 311 312 313 310 314 314 314 314 313 314 314 313 313 314 314 314 313 313 314 313 315 315 315 314 315 313 316 316 316 316 316 316 315
312 313 313 314 314 315 315 315 316 315 314 312 309 307 308 312 314 314 314 314 313 313 314 314 314 313 313 312 313 314 312 309 309 312 311 313 311 310 315 315 315 316 315 315 316
314 313 313 313 313 313 313 313 314 315 315 315 313 308 307 310 310 311 313 313 312 313 312 312 312 312 313 312 311 310 309 310 309 309 312 312 311 311 314 314 314 315 315 316 317
314 313 313 311 311 311 312 312 311 310 311 311 311 309 309 314 311 310 310 312 312 312 311 311 311 312 311 307 308 306 308 307 307 309 310 309 310 309 313 313 314 315 315 315 316
320 319 318 318 318 319 320 320 318 311 309 309 309 309 312 314 312 311 312 312 312 311 311 311 312 308 306 307 309 308 306 306 307 308 307 308 308 309 313 310 312 312 313 314 314
321 321 322 322 323 323 322 321 314 312 311 311 312 311 313 311 312 312 313 312 311 311 308 310 307 308 309 307 308 307 306 306 306 308 309 309 309 309 310 310 310 311 311 312 313
322 322 322 322 322 322 321 318 312 311 310 317 316 312 313 313 313 313 312 311 311 309 306 308 307 307 307 307 307 307 308 308 308 309 306 307 309 309 309 310 311 311 311 312 312
324 325 324 324 324 324 321 318 315 308 309 313 316 313 314 311 311 312 312 311 309 307 306 309 309 308 308 308 308 306 307 308 308 307 306 306 308 307 307 308 310 311 311 311 312
323 323 324 324 323 323 323 321 316 311 312 311 308 309 308 308 308 310 311 311 308 309 307 307 308 308 307 308 307 309 307 308 308 308 309 308 311 308 311 310 306 309 311 313 314
321 322 323 322 323 323 323 323 318 314 325 313 308 309 310 307 308 308 310 310 308 308 306 309 308 308 309 309 307 309 308 308 308 307 307 308 307 311 308 308 308 307 311 313 314
321 321 321 321 322 321 323 322 318 318 326 317 308 308 309 309 308 308 309 309 308 307 306 306 307 307 308 307 306 308 309 307 304 306 310 309 308 310 308 309 309 309 314 314 313
321 320 321 321 321 321 321 321 320 322 318 317 310 308 308 308 309 307 308 308 307 309 307 306 306 307 307 308 307 308 308 309 309 309 313 307 308 312 309 308 309 310 313 314 313
316 316 316 317 320 321 320 319 319 320 321 315 310 308 311 307 310 307 306 306 305 306 304 307 315 306 305 307 309 306 307 308 308 310 314 307 312 313 308 309 311 309 310 312 312
311 310 311 314 315 316 318 321 320 320 318 318 318 319 317 310 311 312 306 306 306 305 310 306 309 306 304 306 307 306 308 307 308 298 303 311 310 312 309 307 307 308 309 311 310
307 306 307 309 309 314 316 319 318 317 317 317 321 320 319 314 311 310 310 307 307 305 306 309 309 307 306 306 306 307 306 308 305 311 309 311 310 313 312 310 308 306 306 311 312
303 302 306 306 308 314 314 316 315 316 316 317 319 319 317 318 315 316 317 313 307 307 306 308 311 314 310 306 307 305 307 307 307 310 315 316 314 313 311 309 307 309 311 311 311
299 303 304 309 311 312 312 311 312 313 314 314 315 317 318 317 317 317 318 316 315 313 315 308 312 314 314 311 307 308 312 312 313 314 310 312 314 312 311 310 309 310 311 308 304
302 304 306 311 310 310 310 310 311 311 311 312 313 313 312 313 314 314 314 312 310 311 312 311 313 315 313 310 307 310 310 310 311 312 313 314 314 310 310 310 310 306 304 302 301
301 300 304 308 307 308 309 309 309 310 311 311 311 311 311 312 312 313 312 309 305 306 308 309 311 312 314 312 308 309 307 306 306 307 309 309 313 312 308 304 297 297 295 295 294
297 298 300 305 303 305 306 308 308 307 309 308 309 310 309 311 310 310 306 301 302 302 303 304 304 305 303 302 302 302 302 302 303 304 305 305 306 304 296 295 296 294 293 292 292
296 296 297 298 298 300 301 303 304 305 306 306 308 305 304 307 304 304 298 300 299 298 297 298 299 299 298 299 298 298 297 298 299 299 301 305 304 294 293 293 294 293 292 291 291
293 294 295 295 296 296 297 299 297 297 297 298 296 297 298 299 295 294 295 295 296 295 295 295 294 289 297 297 294 293 294 295 296 296 296 299 295 293 292 292 291 291 292 290 289

GFSSW_850_thetae_033.txt.gz
Theta_e
310 310 310 310 310 310 311 311 311 312 312 312 312 312 312 312 312 313 313 313 312 314 314 315 315 314 315 316 317 316 312 312 313 311 313 314 314 315 315 316 315 317 317 318 317
310 310 310 310 310 311 311 311 311 312 312 312 312 312 312 313 313 313 314 314 312 312 314 315 314 314 315 316 317 314 311 311 310 309 312 314 314 316 315 315 315 316 317 317 317
311 311 311 311 311 312 312 312 312 312 312 312 312 313 313 313 313 312 314 313 313 312 313 314 314 315 315 315 316 313 313 310 312 312 313 313 313 315 314 313 317 317 318 317 317
312 312 312 312 312 312 312 312 312 312 313 313 313 313 313 313 311 313 314 314 314 313 313 314 314 315 314 313 315 314 314 313 314 315 315 313 315 313 315 316 316 317 317 317 317
312 311 311 311 310 310 310 311 311 311 311 312 312 312 312 312 314 314 314 313 312 312 313 314 314 314 313 312 313 313 313 315 316 315 315 315 314 313 314 315 315 316 316 316 315
309 309 309 310 310 311 312 313 313 313 313 312 311 309 308 309 313 314 314 313 313 313 313 314 313 313 313 313 312 312 313 313 314 314 314 313 313 312 314 314 314 314 314 314 315
313 313 314 314 314 315 314 315 316 317 317 317 316 314 310 311 312 312 313 313 313 313 313 314 313 313 313 312 313 313 312 308 309 311 310 311 312 309 314 314 314 314 314 314 315
314 313 313 313 312 311 311 312 312 312 312 311 312 313 313 319 316 314 310 310 312 312 313 313 312 312 312 312 310 309 308 309 309 308 310 312 311 311 312 313 313 314 314 314 314
316 316 317 316 316 316 316 316 317 316 314 310 310 310 311 315 314 313 310 309 311 311 311 311 311 311 311 308 307 306 308 306 307 307 309 310 310 310 312 311 312 312 312 313 313
320 321 321 321 322 322 322 322 321 318 313 310 309 308 311 313 313 312 311 310 311 310 310 311 311 307 305 306 310 308 306 305 307 309 306 308 309 309 310 310 309 310 310 311 312
321 322 322 322 323 323 322 322 318 316 313 311 311 311 312 313 311 312 312 311 311 310 308 309 307 308 309 307 307 307 305 305 305 307 306 309 308 308 309 308 309 310 310 309 310
322 324 324 324 324 324 324 321 317 314 311 320 320 316 318 313 312 312 311 311 310 308 306 307 307 307 307 306 306 307 308 308 308 307 305 306 308 309 309 309 310 310 310 310 312
323 323 323 323 323 322 322 321 320 312 310 316 317 313 314 313 311 312 311 310 308 306 306 309 309 307 306 307 308 305 307 308 307 305 305 305 308 307 308 308 310 311 310 312 312
321 322 323 324 322 323 323 322 322 317 313 313 310 309 308 308 308 309 310 310 308 308 306 306 307 308 306 307 306 309 306 307 307 307 309 307 310 311 312 310 309 309 312 312 312
321 321 321 321 321 320 320 322 322 316 324 313 307 309 309 307 308 308 309 309 308 307 307 309 307 307 308 308 306 308 308 307 306 306 307 307 308 308 308 311 309 308 312 311 311
321 321 321 321 321 320 321 322 319 319 327 317 307 308 309 308 308 308 308 309 308 306 305 305 306 306 307 306 306 307 308 306 303 305 309 308 309 310 308 310 309 309 311 310 311
320 320 320 320 320 320 320 320 321 323 319 316 308 307 307 308 308 307 308 308 307 309 307 306 306 306 307 308 306 307 307 310 311 309 315 306 307 312 309 311 308 306 309 310 311
316 315 316 317 319 320 320 319 321 319 320 316 316 312 310 308 308 306 306 307 305 306 307 307 316 306 305 308 309 307 308 313 313 312 316 306 311 312 308 309 309 308 309 311 313
312 311 311 314 314 316 317 321 318 317 317 318 317 318 318 313 314 313 308 309 308 306 317 316 311 305 304 305 307 306 309 308 310 297 306 313 313 311 306 307 307 307 310 307 304
307 307 307 308 309 312 315 317 318 317 316 317 321 319 319 316 312 313 313 308 308 305 306 310 314 309 306 305 305 307 306 309 308 313 315 313 312 312 310 310 306 305 301 301 302
304 303 305 306 307 312 311 310 314 316 316 316 318 318 318 317 316 316 316 313 307 306 306 312 311 313 311 309 312 312 308 307 307 310 316 316 314 310 309 305 302 302 301 298 298
297 300 303 309 311 310 311 309 310 311 313 314 315 315 315 315 316 316 316 315 315 313 315 312 312 315 313 309 306 307 310 310 312 313 311 313 314 311 308 303 299 298 296 294 293
302 302 308 309 308 308 309 309 310 310 309 311 312 312 312 311 312 311 311 309 310 311 313 312 313 315 310 308 308 310 310 309 307 309 312 314 314 306 304 303 296 295 293 292 292
299 298 304 307 308 307 307 307 308 308 309 310 310 310 310 311 310 311 312 309 305 306 309 309 310 312 312 310 306 308 304 303 303 305 306 306 305 304 301 297 296 294 293 292 291
298 297 299 298 302 304 305 305 306 306 307 307 307 308 307 309 307 307 305 302 301 299 301 303 307 305 308 303 300 301 301 300 300 300 301 300 300 300 296 293 292 291 291 292 290
296 295 297 297 299 300 301 301 302 302 302 303 305 300 303 307 305 304 299 300 299 297 297 298 300 298 295 299 299 299 296 295 295 295 295 296 297 294 293 291 291 290 290 292 289
293 295 294 293 295 296 296 298 296 297 295 297 296 296 297 299 296 295 295 295 296 296 295 295 296 291 298 297 292 291 293 295 294 293 294 297 294 291 291 291 291 289 289 290 288